TimeAKST,TemperatureF,Dew PointF,Humidity,Sea Level PressureIn,VisibilityMPH,Wind Direction,Wind SpeedMPH,Gust SpeedMPH,PrecipitationIn,Events,Conditions,WindDirDegrees,DateUTC
12:53 AM,21.0,16.0,81,29.68,2.0,Variable,3.5,-,0.01,Snow,Light Snow,0,2013-01-17 09:53:00
1:43 AM,21.2,15.8,80,29.65,3.0,NE,5.8,-,0.00,Snow,Light Snow,40,2013-01-17 10:43:00
1:53 AM,21.0,16.0,81,29.66,5.0,ENE,3.5,-,0.00,Snow,Light Snow,60,2013-01-17 10:53:00
3:53 AM,19.9,16.0,85,29.63,3.0,ENE,4.6,-,0.01,Snow,Light Snow,70,2013-01-17 12:53:00
4:12 AM,19.4,15.8,86,29.62,2.5,ENE,4.6,-,0.00,Snow,Light Snow,70,2013-01-17 13:12:00
4:53 AM,19.9,16.0,85,29.61,2.5,East,3.5,-,0.00,Snow,Light Snow,80,2013-01-17 13:53:00
5:53 AM,19.9,16.0,85,29.60,2.0,East,4.6,-,0.01,Snow,Light Snow,90,2013-01-17 14:53:00
6:47 AM,19.4,15.8,86,29.59,1.8,ENE,8.1,-,0.01,Snow,Light Snow,60,2013-01-17 15:47:00
6:53 AM,19.9,15.1,81,29.61,1.8,East,5.8,-,0.01,Snow,Light Snow,80,2013-01-17 15:53:00
7:26 AM,19.4,15.8,86,29.60,2.0,ENE,5.8,-,0.01,Snow,Light Snow,60,2013-01-17 16:26:00
7:53 AM,19.0,15.1,85,29.61,2.0,NE,4.6,-,0.01,Snow,Light Snow,50,2013-01-17 16:53:00
7:56 AM,19.4,15.8,86,29.60,1.8,ENE,4.6,-,0.00,Snow,Light Snow,60,2013-01-17 16:56:00
8:53 AM,19.0,15.1,85,29.62,1.8,NNE,5.8,-,0.01,Snow,Light Snow,20,2013-01-17 17:53:00
9:53 AM,19.0,14.0,81,29.64,1.0,NE,3.5,-,0.02,Snow,Light Snow,40,2013-01-17 18:53:00
10:12 AM,19.4,14.0,80,29.63,0.8,ENE,4.6,-,0.00,Snow,Light Snow,70,2013-01-17 19:12:00
10:25 AM,19.4,14.0,80,29.63,1.0,NE,5.8,-,0.01,Snow,Light Snow,50,2013-01-17 19:25:00
10:34 AM,19.4,14.0,80,29.63,1.0,North,9.2,-,0.01,Snow,Light Snow,350,2013-01-17 19:34:00
10:53 AM,18.0,12.9,81,29.65,1.0,North,6.9,-,0.01,Snow,Light Snow,360,2013-01-17 19:53:00
11:39 AM,19.4,12.2,74,29.65,5.0,NE,3.5,-,0.00,Snow,Light Snow,40,2013-01-17 20:39:00
11:51 AM,19.4,10.4,68,29.65,5.0,NE,4.6,-,0.00,,Overcast,50,2013-01-17 20:51:00
11:53 AM,19.0,10.0,68,29.66,5.0,NNE,8.1,-,0.00,,Overcast,30,2013-01-17 20:53:00
12:22 PM,19.4,10.4,68,29.66,2.5,NNE,8.1,-,0.00,Snow,Light Snow,20,2013-01-17 21:22:00
12:30 PM,19.4,10.4,68,29.66,2.0,NNE,6.9,-,0.00,Snow,Light Snow,30,2013-01-17 21:30:00
12:42 PM,17.6,10.4,73,29.67,1.5,North,5.8,-,0.00,Snow,Light Snow,10,2013-01-17 21:42:00
12:53 PM,18.0,10.9,74,29.68,1.5,NE,3.5,-,0.01,Snow,Light Snow,40,2013-01-17 21:53:00
1:17 PM,19.4,10.4,68,29.68,2.0,NE,3.5,-,0.00,Snow,Light Snow,50,2013-01-17 22:17:00
1:45 PM,17.6,10.4,73,29.69,1.5,NNE,4.6,-,0.00,Snow,Light Snow,30,2013-01-17 22:45:00
1:53 PM,18.0,10.9,74,29.71,1.5,NE,4.6,-,0.00,Snow,Light Snow,40,2013-01-17 22:53:00
1:59 PM,17.6,10.4,73,29.70,1.8,NNE,6.9,-,0.00,Snow,Light Snow,30,2013-01-17 22:59:00
2:25 PM,17.6,12.2,79,29.70,2.0,ENE,9.2,-,0.00,Snow,Light Snow,70,2013-01-17 23:25:00
2:36 PM,17.6,10.4,73,29.71,4.0,ENE,6.9,-,0.00,Snow,Light Snow,60,2013-01-17 23:36:00
2:47 PM,17.6,10.4,73,29.71,6.0,Variable,5.8,-,0.00,,Overcast,0,2013-01-17 23:47:00
2:53 PM,19.0,10.9,71,29.73,6.0,ENE,4.6,-,0.00,,Overcast,60,2013-01-17 23:53:00
3:53 PM,18.0,9.0,68,29.75,10.0,ENE,3.5,-,0.00,Snow,Light Snow,70,2013-01-18 00:53:00
4:53 PM,18.0,10.0,71,29.78,10.0,ESE,4.6,-,0.00,,Mostly Cloudy,120,2013-01-18 01:53:00
5:53 PM,19.0,8.1,62,29.81,10.0,ENE,3.5,-,N/A,,Mostly Cloudy,60,2013-01-18 02:53:00
6:53 PM,19.0,3.9,52,29.83,10.0,NNE,3.5,-,N/A,,Mostly Cloudy,30,2013-01-18 03:53:00
7:53 PM,16.0,3.9,59,29.85,10.0,ENE,3.5,-,N/A,,Mostly Cloudy,60,2013-01-18 04:53:00
8:53 PM,16.0,1.0,52,29.86,10.0,North,6.9,-,N/A,,Mostly Cloudy,10,2013-01-18 05:53:00
9:53 PM,16.0,1.9,54,29.90,10.0,North,10.4,-,N/A,,Mostly Cloudy,360,2013-01-18 06:53:00
10:53 PM,15.1,1.9,56,29.93,10.0,North,6.9,-,N/A,,Mostly Cloudy,10,2013-01-18 07:53:00
11:53 PM,14.0,1.0,56,29.96,10.0,NNE,5.8,-,N/A,,Mostly Cloudy,30,2013-01-18 08:53:00